Flag for Canada Weather past 2 weeks in Red Deer, Alberta, Canada

Now
57 °F

Partly sunny.


Feels Like: 55 °F
Forecast: 51 / 68 °F
Wind: 12 mph from South

Location: Red Deer

Current Time: Jul 24, 2014 at 8:43:03 AM

Latest Report: Jul 24, 2014 at 8:00 AM


Visibility: 15 mi

Pressure: 29.68 "Hg

Humidity: 88%

Dew point: 54 °F

Location of Red DeerLocation

Historic Weather in Red Deer — Graph

°F

Red Deer temperature yesterday

Maximum temperature yesterday: 75 °F (at 4:00 PM)
Minimum temperature yesterday: 54 °F (at 7:00 AM)
Average temperature yesterday: 68 °F

Past Weeks' High & Low Weather Summary

 TemperatureHumidityPressure
High84 °F (Jul 9, 5:00 PM)100% (Jul 16, 6:00 AM)30.29 "Hg (Jul 16, 6:00 AM)
Low45 °F (Jul 11, 5:00 AM)25% (Jul 9, 2:00 PM)29.55 "Hg (Jul 19, 6:00 AM)
Average63 °F73%29.97 "Hg
* Reported Jul 9 7:00 AM — Jul 24 7:00 AM, Red Deer, Weather by CustomWeather, © 2014

Note: Actual official high and low records may vary slightly from our data, if they occured in-between our weather recording intervals... More about our weather records

Advertising

Red Deer weather history for previous 24 hours

 ConditionsComfort  
Time TempWeatherWind HumidityBarometerVisibility
7:00 AM
Jul 24
57 °FSprinkles. Partly sunny.8 mph88%29.70 "Hg15 mi
6:46 AM57 °FSprinkles. Partly sunny.8 mph88%29.71 "Hg15 mi
6:00 AM57 °FPassing clouds.9 mph88%29.74 "Hg15 mi
5:00 AM54 °FPartly cloudy.6 mph94%29.75 "Hg15 mi
4:00 AM54 °FPassing clouds.8 mph94%29.74 "Hg15 mi
3:00 AM59 °FPassing clouds.7 mph88%29.74 "Hg15 mi
2:00 AM61 °FSprinkles. Overcast.10 mph88%29.75 "Hg15 mi
1:47 AM61 °FOvercast.5 mph88%29.80 "Hg15 mi
1:00 AM64 °FMostly cloudy.10 mph78%29.82 "Hg15 mi
12:00 AM63 °FOvercast.6 mph83%29.81 "Hg15 mi
11:00 PM
Jul 23
59 °FPassing clouds.5 mph94%29.85 "Hg15 mi
10:00 PM64 °FPartly sunny.3 mph83%29.86 "Hg15 mi
9:00 PM68 °FPartly sunny.6 mph73%29.86 "Hg15 mi
8:00 PM73 °FPartly sunny.7 mph53%29.88 "Hg15 mi
7:00 PM72 °FPartly sunny.8 mph53%29.92 "Hg15 mi
6:00 PM75 °FScattered clouds.12 mph50%29.95 "Hg15 mi
5:00 PM75 °FPartly sunny.8 mph50%29.97 "Hg15 mi
4:00 PM75 °FScattered clouds.5 mph41%29.99 "Hg15 mi
3:00 PM73 °FScattered clouds.3 mph50%30.00 "Hg15 mi
2:00 PM73 °FPartly sunny.6 mph53%30.02 "Hg15 mi
1:00 PM72 °FPartly sunny.2 mph57%30.03 "Hg15 mi
12:00 PM70 °FPartly sunny.3 mph64%30.04 "Hg15 mi
11:00 AM70 °FPartly sunny.2 mph57%30.04 "Hg15 mi
10:00 AM66 °FPartly sunny.5 mph68%30.06 "Hg15 mi
9:00 AM61 °FPartly sunny.7 mph72%30.06 "Hg15 mi
8:00 AM55 °FPartly sunny.6 mph88%30.07 "Hg15 mi
Weather by CustomWeather, © 2014

See weather overviewHow to use our weather pages